Location: Malvern Link
(52.1333°N, 2.3000°W)
Time: 05:50:38
(UTC+00:00)

Envisat - Pass Details

Date: 27 January 2022
Orbit: 764 x 765 km, 98.2° (Epoch: 25 May)

Event Time Altitude Azimuth Distance (km) Brightness Sun altitude
Rises 05:17:42 0° 14° (NNE) 3,245 6.4 -24.3°
Reaches altitude 10° 05:20:01 10° 15° (NNE) 2,314 5.6 -23.9°
Maximum altitude 05:25:08 89° 106° (ESE) 773 2.9 -23.1°
Drops below altitude 10° 05:30:13 10° 196° (SSW) 2,298 5.3 -22.3°
Sets 05:32:30 0° 197° (SSW) 3,221 6.1 -22.0°
